Location: Newark
(49.8969°N, 3.3422°E)
Time: 23:36:48
(UTC+00:00)

A-11 Canister half - Pass Details

Date: 20 January 2020
Orbit: 1517 x 1683 km, 47.2° (Epoch: 20 February)

Event Time Altitude Azimuth Distance (km) Brightness Sun altitude
Exits shadow 02:54:42 47° 100° (E) 1,932 9.6 -44.2°
Drops below altitude 10° 03:00:53 10° 87° (E) 3,698 11.5 -43.3°
Sets 03:03:57 0° 86° (E) 4,693 12.3 -42.8°
